Theta_e
316 316 316 315 315 315 314 313 310 309 310 311 310 310 310 309 309 308 308 307 306 305 305 305 305 304 304 303 303 303 303 302 302 301 301 301 302 302 301 300 300 300 300 300 300 300 300 299 299 299 299 297 297 297 297 298 297 297 296 296 295 294 294 294 293 293 293 293 292
317 316 315 313 313 314 315 313 311 310 310 312 311 311 311 310 310 309 308 307 306 306 305 305 305 304 304 303 303 304 304 303 302 301 301 301 302 302 301 301 300 300 301 301 301 301 301 300 300 299 299 298 298 298 298 298 297 297 296 295 295 294 294 294 294 294 293 293 293
317 317 317 316 316 316 316 314 313 312 311 312 312 312 311 311 310 310 309 308 307 306 306 305 305 304 304 304 304 304 304 303 302 302 302 302 303 302 302 301 301 301 301 301 301 301 301 300 300 299 299 299 299 298 298 297 296 296 296 296 295 295 295 295 295 294 294 294 293
318 318 318 317 317 316 316 315 314 313 312 313 312 312 312 311 311 310 309 308 307 306 306 305 305 305 305 305 305 305 304 303 303 302 302 303 303 302 302 302 301 301 302 302 301 301 301 301 300 300 299 299 298 298 298 298 296 297 297 296 296 295 295 296 295 295 295 295 294
318 318 319 318 317 317 317 316 315 314 313 313 313 312 312 312 311 310 309 308 307 307 306 306 306 306 305 305 305 305 304 303 301 302 303 303 303 303 303 302 302 302 302 302 301 301 301 300 301 300 299 299 299 299 298 297 296 297 297 296 296 296 296 296 296 296 296 295 294
318 319 319 319 318 318 317 317 316 315 314 314 313 312 312 312 312 311 309 308 308 307 306 305 305 305 305 305 305 305 304 303 302 302 303 303 303 303 303 302 302 302 302 302 301 301 301 301 301 300 299 299 298 298 297 297 297 297 296 296 296 296 296 296 296 296 295 294 294
319 320 319 319 318 318 318 318 317 316 315 315 313 312 312 312 311 310 309 309 308 307 306 305 305 305 305 305 304 304 304 303 303 303 303 303 304 304 303 303 302 302 302 302 302 302 301 301 301 300 299 298 298 298 297 297 297 297 297 296 296 296 296 295 295 295 294 294 293
320 320 320 320 319 318 318 318 318 317 316 315 314 313 312 312 311 310 309 309 308 307 307 306 306 306 305 305 304 304 304 303 303 303 303 303 304 304 304 304 303 302 302 302 302 302 301 301 301 300 299 298 299 298 298 297 297 297 297 296 296 295 295 295 295 294 294 293 293
320 320 320 320 319 319 318 318 318 317 317 316 314 313 312 312 311 310 310 309 308 307 307 307 306 306 305 304 304 304 304 304 303 303 303 303 303 304 304 304 303 302 302 302 302 302 301 301 301 301 300 299 299 299 298 297 297 297 296 296 296 295 295 294 294 294 294 293 292
320 320 320 320 319 319 318 319 319 318 317 316 315 313 312 309 310 310 310 310 308 308 308 307 306 305 305 304 304 304 304 304 303 303 303 303 303 304 304 305 304 303 302 302 302 302 302 301 301 300 300 300 299 299 298 297 297 297 296 296 296 295 295 295 295 294 294 293 292
320 320 320 320 320 319 319 319 319 318 317 316 315 314 312 310 310 310 311 310 309 308 308 308 306 305 305 305 304 304 304 304 304 304 303 303 303 304 304 305 304 303 303 302 302 302 302 301 301 300 300 300 299 299 298 297 297 297 297 297 296 296 296 295 295 295 294 293 293
320 320 320 320 320 320 319 320 319 319 318 317 315 314 313 313 312 311 310 310 308 308 307 307 306 306 305 305 305 304 304 304 304 304 304 303 304 304 304 305 304 304 303 303 302 302 302 301 301 300 299 299 299 298 298 297 297 297 297 297 296 296 296 296 295 295 294 294 293
321 320 320 320 320 320 320 320 320 319 318 317 316 315 315 314 312 311 310 310 308 308 308 307 306 306 305 305 305 305 304 304 304 303 303 303 303 304 304 304 304 304 304 303 302 302 302 301 300 300 299 299 299 298 298 298 297 297 297 297 297 297 296 296 295 295 295 294 293
321 321 320 320 320 320 320 320 320 319 319 317 317 316 316 315 313 312 311 311 309 308 307 306 306 306 305 305 304 304 304 304 304 303 303 303 303 304 304 304 304 304 304 303 302 302 301 301 300 300 299 299 299 298 297 297 297 297 297 297 297 296 296 296 295 295 294 294 293
321 321 320 321 321 321 321 321 320 319 319 317 317 317 316 316 313 312 311 311 310 308 307 306 306 305 305 304 304 304 304 304 303 303 303 303 303 303 304 304 304 304 304 303 302 302 301 301 300 300 300 299 299 298 297 297 297 297 297 297 297 296 296 296 295 295 294 294 294
321 321 321 321 321 321 321 321 321 320 319 318 317 317 317 317 315 313 312 311 310 309 308 306 306 306 304 303 304 304 304 304 303 303 303 303 303 303 303 304 304 304 304 303 302 301 301 301 301 300 300 299 299 298 298 297 297 297 297 297 296 296 296 296 295 295 294 294 294
321 321 321 321 321 321 321 322 321 320 319 318 318 318 318 317 316 314 312 311 310 309 308 306 306 306 305 303 303 304 304 304 303 303 303 303 303 303 303 304 304 305 304 303 302 301 301 301 301 300 300 299 299 298 298 297 297 297 296 296 296 296 296 296 295 295 295 294 295
321 321 321 321 321 322 321 322 321 320 320 318 318 318 318 318 317 315 313 312 311 310 308 307 306 306 305 304 304 304 303 304 303 303 303 304 304 304 304 305 305 305 304 303 302 301 301 301 300 300 300 299 299 299 299 298 297 297 296 296 296 296 296 295 295 295 295 296 296
321 321 321 321 322 322 322 321 321 320 320 319 318 318 318 318 317 316 315 313 311 310 308 307 307 306 305 304 304 304 303 303 303 303 303 304 304 304 304 306 306 306 305 303 302 301 301 300 299 299 299 299 299 299 299 298 297 297 296 296 296 296 296 295 295 296 296 297 296
321 321 321 321 322 322 322 322 321 321 320 320 319 319 318 318 318 317 315 314 312 310 309 308 307 306 305 304 304 303 303 304 303 303 303 304 304 304 304 306 306 306 305 304 302 301 301 300 299 299 299 299 299 299 298 298 298 297 297 297 296 296 296 296 296 297 297 297 297
321 321 321 322 322 323 323 323 322 321 321 320 319 319 319 318 318 317 316 314 312 310 309 308 307 306 305 304 304 304 304 304 304 304 304 304 304 304 305 306 306 306 305 304 303 302 301 300 300 299 299 299 299 299 299 298 298 297 297 297 296 295 295 296 296 297 297 297 297
321 321 321 322 322 322 323 323 323 322 321 320 320 319 319 319 318 317 316 314 312 311 309 308 307 306 306 305 304 304 304 304 304 304 304 304 304 305 305 305 305 305 304 304 303 302 301 301 300 300 300 299 299 299 298 298 298 297 296 296 295 295 295 296 297 297 297 297 297
321 321 321 321 321 321 321 322 322 322 321 320 320 320 319 319 319 317 316 314 312 310 309 308 307 306 306 305 305 304 305 305 304 304 304 304 304 304 305 305 305 304 304 304 304 303 302 301 301 300 300 299 299 298 298 297 297 297 296 295 294 295 295 296 297 297 297 296 296
320 320 321 321 321 321 321 322 322 321 321 321 320 320 319 319 318 316 314 313 311 310 309 309 307 306 305 305 305 305 305 304 304 304 304 304 304 304 304 304 304 304 304 304 303 303 302 301 301 300 300 299 299 298 297 296 296 296 295 294 295 295 296 296 296 297 297 296 296
319 319 319 320 320 321 321 321 321 321 321 321 320 319 318 317 316 314 313 311 310 310 309 308 307 306 306 306 306 306 305 305 304 304 305 305 304 304 303 303 303 304 304 303 300 299 298 298 300 301 301 300 299 297 296 295 295 295 295 294 295 295 296 296 296 296 296 296 296
318 318 318 318 319 319 319 320 321 321 321 321 319 317 315 315 313 311 310 309 309 309 308 308 307 306 306 306 306 306 306 305 305 305 305 305 305 304 303 303 303 303 303 301 298 296 296 297 298 298 299 300 298 297 295 295 294 295 295 294 295 295 296 295 295 295 296 296 296
316 316 317 316 316 316 317 318 319 320 320 319 317 315 313 312 311 309 308 307 307 307 307 307 307 306 305 308 307 306 306 305 305 305 305 305 304 303 303 303 303 303 302 299 296 295 295 296 296 297 297 299 298 297 296 296 295 295 294 294 295 295 295 295 295 295 295 296 296
315 316 315 315 314 313 313 313 314 315 316 316 314 313 312 310 309 307 306 306 306 306 306 307 306 306 307 309 308 307 306 306 305 305 304 304 303 302 302 303 302 301 299 296 295 295 296 296 297 297 296 297 298 297 296 296 295 295 295 295 295 295 295 294 295 295 295 295 296
315 314 313 312 311 310 310 310 310 311 311 311 311 311 310 309 308 307 306 306 305 305 305 305 305 306 307 307 307 306 306 304 304 304 304 303 303 302 302 302 301 298 296 295 295 296 296 296 296 296 296 296 298 298 297 296 295 295 295 295 295 294 294 295 295 295 295 295 296
313 312 311 310 309 308 308 308 308 309 309 310 310 309 309 308 307 306 306 305 305 304 303 303 304 304 305 304 304 304 304 303 303 303 302 302 302 302 302 301 301 299 295 294 295 296 296 296 296 295 295 295 295 296 296 295 295 295 295 295 295 295 295 295 295 295 295 296 295
310 309 309 308 307 307 306 306 307 307 308 308 308 308 308 307 307 306 306 305 304 302 301 302 302 302 302 301 302 302 302 302 302 302 302 302 301 301 301 302 301 298 295 293 294 295 296 296 295 294 294 293 293 294 295 295 295 295 295 295 295 295 295 295 295 295 295 295 295
309 308 307 307 306 305 305 305 305 305 306 306 306 306 306 305 305 305 304 304 303 302 301 301 301 300 300 299 299 299 299 300 300 300 301 301 301 301 301 301 300 296 292 293 293 294 294 295 294 293 292 292 293 294 295 295 295 295 295 295 296 296 295 296 295 295 295 294 294
307 307 306 306 305 304 304 304 304 304 304 304 304 303 303 302 302 302 301 301 301 301 301 300 299 299 298 297 297 297 297 297 297 297 296 297 298 299 299 298 295 292 291 292 293 293 293 293 293 292 292 292 293 294 295 295 295 295 295 295 295 295 295 295 295 294 293 292 292
306 306 305 304 304 303 303 303 303 302 302 302 301 301 301 300 300 299 299 298 299 299 299 298 298 297 297 296 296 296 295 294 294 294 294 294 295 295 294 293 292 291 291 292 292 292 292 292 292 292 292 291 292 293 294 294 294 293 293 293 293 293 293 292 292 291 290 290 290
306 305 304 303 303 302 302 302 301 301 301 300 300 299 299 299 299 298 297 297 297 297 297 297 296 296 295 295 295 294 293 293 293 293 292 292 292 292 291 290 290 291 291 292 292 292 292 292 292 291 291 290 291 292 292 292 292 291 291 291 291 290 290 289 289 289 289 289 290
305 304 303 302 302 301 301 301 301 300 300 299 298 298 298 298 297 297 296 296 296 297 296 296 295 295 295 294 293 293 292 292 292 292 291 292 292 291 291 290 290 290 291 292 292 292 292 291 291 291 291 291 291 291 291 290 290 289 289 289 288 288 288 288 288 289 289 290 290
303 303 302 301 301 301 300 300 300 300 299 298 298 298 297 297 297 296 296 296 297 296 295 295 295 294 294 293 293 293 292 292 292 291 291 291 292 292 291 290 290 290 290 291 291 292 291 291 291 291 290 290 290 289 289 289 288 287 287 287 286 287 287 287 288 289 290 290 291
302 302 301 301 301 300 300 300 299 299 298 297 297 297 297 297 297 296 296 296 296 295 295 294 294 294 293 293 293 293 293 292 292 291 291 292 292 292 292 291 291 290 289 290 291 291 291 291 291 290 290 289 288 288 287 287 286 286 286 286 286 287 287 288 289 289 289 289 290
302 301 301 301 301 300 300 299 299 298 298 297 297 297 297 297 296 296 295 295 295 295 294 293 293 293 293 293 293 293 293 293 292 292 292 292 292 292 292 291 290 289 288 290 290 291 291 291 291 290 289 287 287 287 287 286 286 286 286 287 287 287 287 287 288 288 288 288 290
301 301 301 301 301 300 300 299 299 298 298 297 297 297 297 296 295 295 295 295 295 294 294 293 293 293 292 292 293 293 293 293 292 292 291 291 291 291 291 290 289 288 288 289 290 291 291 291 291 290 289 287 287 287 287 287 286 286 286 286 286 286 286 285 285 286 286 285 288
301 301 301 300 300 300 300 299 298 298 297 297 297 296 295 295 295 295 295 295 294 294 294 294 293 293 292 292 293 293 293 292 292 291 291 291 291 291 291 289 288 287 287 289 290 291 291 291 291 290 289 287 287 287 287 286 286 285 284 284 284 284 284 284 284 284 284 284 285
Wind_Speed
12 11 10 9 8 8 8 7 7 7 7 8 9 9 9 9 9 8 8 8 8 8 8 8 8 7 8 10 11 12 12 11 10 10 9 9 9 10 11 11 11 10 10 9 9 8 8 8 7 5 5 4 4 4 4 4 4 4 4 4 4 4 5 5 5 5 4 4 3
13 12 11 10 9 8 7 7 7 7 8 8 9 9 9 9 9 9 9 9 9 8 8 7 8 8 9 11 12 12 12 12 12 11 10 10 10 10 11 11 12 11 11 10 10 9 8 8 7 6 5 4 5 5 5 4 5 5 5 6 5 4 4 5 5 5 5 4 4
14 13 12 11 10 9 9 8 9 9 10 9 9 9 9 9 9 9 9 10 9 9 8 7 8 10 11 12 12 12 12 12 12 12 11 10 10 10 11 11 12 12 12 11 10 9 8 9 7 6 5 5 6 6 5 5 5 5 6 7 5 4 4 5 5 5 4 4 4
14 14 13 13 13 13 12 10 11 12 12 10 10 10 10 9 8 8 9 9 9 9 9 9 9 10 11 11 12 12 12 12 12 12 11 10 10 10 11 11 12 12 12 11 11 10 10 9 7 6 6 6 7 6 6 5 5 5 5 6 5 5 5 5 5 4 4 3 3
15 14 14 14 15 15 13 12 12 12 11 10 9 9 9 9 9 8 8 8 9 10 10 11 10 10 11 11 12 12 12 12 12 12 11 11 11 11 11 12 12 12 12 12 12 11 11 10 7 6 6 6 6 6 6 6 6 6 5 4 4 4 5 5 5 4 4 3 3
15 15 15 14 15 14 13 12 13 12 11 10 10 10 10 9 9 8 9 10 10 11 11 12 11 11 11 11 12 12 12 12 12 12 12 12 11 11 12 13 13 13 12 12 12 12 11 10 7 6 6 5 6 6 6 7 7 6 5 4 4 4 4 5 4 4 3 3 3
16 16 16 15 15 15 14 13 13 12 11 11 12 13 12 11 11 11 11 10 10 10 10 11 11 11 11 12 12 12 12 12 12 12 13 12 12 12 12 13 14 13 13 12 12 12 11 10 7 6 6 5 5 6 7 7 7 6 6 6 5 4 4 5 4 4 4 5 5
16 16 16 16 16 16 15 15 13 12 12 11 13 14 14 13 12 12 11 10 9 10 10 10 12 12 12 12 12 13 13 13 13 13 13 12 13 13 13 13 13 13 13 13 12 12 11 10 8 7 7 6 6 6 8 8 8 8 7 7 5 4 4 4 4 4 5 6 6
15 16 16 16 16 16 16 16 15 14 13 13 13 13 13 12 12 12 11 10 10 10 11 11 12 13 13 13 14 14 14 14 14 14 13 13 14 13 13 12 13 13 13 13 13 13 13 10 9 8 7 7 7 7 8 9 9 9 8 7 6 5 4 4 5 5 6 6 7
16 16 16 16 16 16 17 16 16 15 14 14 14 13 12 11 11 11 11 9 9 10 11 12 12 13 13 14 14 14 14 14 14 15 15 15 15 15 14 13 14 14 13 13 13 14 13 11 10 9 9 8 9 9 9 9 10 10 9 6 6 6 6 5 5 6 6 6 7
18 17 17 16 17 16 16 16 15 14 14 13 13 12 11 10 10 10 10 9 9 11 12 12 13 13 14 14 14 14 14 14 14 15 15 16 16 16 16 15 14 14 14 14 13 13 12 11 11 11 11 9 10 10 9 10 10 10 9 7 7 8 7 6 6 6 6 6 7
18 18 17 16 16 16 16 15 14 14 13 13 13 12 11 10 10 10 10 10 11 12 12 12 13 14 14 13 13 14 14 14 14 14 15 16 16 16 16 15 15 15 15 14 13 12 11 11 12 12 12 11 9 9 9 10 10 10 10 9 8 8 8 8 7 6 6 6 6
18 17 17 16 16 16 15 15 14 13 13 13 13 12 11 10 10 10 11 11 11 11 11 12 13 14 14 13 13 13 13 14 14 14 14 15 15 15 15 15 15 14 14 13 12 11 11 11 12 12 12 11 9 8 9 10 10 11 10 10 9 9 9 9 8 7 5 5 6
17 17 17 16 16 16 15 15 13 13 13 14 13 12 11 10 10 10 11 11 11 11 10 11 12 12 13 13 13 13 13 13 14 14 14 14 14 14 15 14 14 14 13 12 12 12 12 11 12 12 11 11 9 8 8 9 10 10 10 10 10 10 10 9 8 7 6 5 6
17 17 17 17 16 15 15 15 13 12 12 13 12 12 11 10 10 10 10 11 11 10 10 10 10 11 12 13 13 13 13 13 14 14 14 14 14 14 14 14 14 13 12 12 11 12 12 12 11 11 11 10 10 9 9 9 9 10 10 10 10 10 10 9 8 7 6 6 6
17 17 17 17 16 16 15 14 12 12 12 12 12 11 11 10 10 10 10 11 10 10 10 11 11 10 10 11 12 12 12 12 13 13 14 13 13 14 14 14 13 12 12 11 11 11 11 11 11 11 11 11 11 10 9 9 9 9 9 10 10 9 9 8 7 7 7 7 7
18 17 17 17 17 17 16 14 12 12 12 12 12 11 11 10 10 10 10 11 10 10 11 12 11 11 10 10 11 11 11 12 12 13 13 13 14 14 13 13 11 11 10 11 11 11 11 10 10 11 12 12 12 11 10 10 9 9 9 9 9 9 8 7 7 7 8 9 8
18 17 17 17 17 17 16 15 14 13 13 13 13 12 11 11 11 11 11 11 11 12 12 13 12 11 11 11 11 10 11 11 12 12 13 13 14 14 13 11 10 9 10 10 10 11 11 11 11 10 11 11 11 11 10 10 9 9 9 9 9 8 8 7 7 8 9 9 8
17 17 17 17 17 17 16 16 15 14 14 14 13 13 13 13 12 12 12 12 12 13 14 13 12 12 12 13 12 11 10 11 12 13 13 13 13 14 13 11 10 10 10 10 10 10 11 11 10 10 10 10 10 10 10 10 10 10 10 10 9 8 7 7 8 9 9 8 6
16 16 16 16 16 16 16 16 15 15 14 14 14 14 15 15 14 14 14 13 13 13 13 13 13 12 12 12 12 12 11 10 12 13 13 13 13 14 13 11 11 11 11 11 11 11 11 11 11 11 10 10 10 10 10 10 10 11 10 10 9 8 8 8 9 9 8 6 5
15 15 14 14 14 15 15 15 15 15 15 15 15 16 16 16 16 15 15 15 13 13 13 13 13 12 12 12 13 12 12 10 11 12 13 13 14 14 13 12 12 12 12 12 12 12 13 13 12 12 12 12 12 12 11 11 10 10 10 8 8 8 8 9 9 8 6 5 5
13 13 13 13 13 14 14 14 14 15 15 15 16 17 17 17 16 16 15 14 14 13 13 13 13 13 13 12 13 13 12 10 11 11 12 12 13 13 12 11 12 12 12 13 13 13 13 13 13 13 13 12 13 12 12 11 10 9 9 8 7 8 8 8 7 6 5 5 5
12 11 11 12 12 12 13 13 13 14 15 15 16 17 17 17 16 15 14 13 13 13 13 11 11 12 12 12 13 13 12 11 11 10 10 10 11 11 10 9 11 12 13 12 12 12 13 13 13 13 13 12 12 12 11 10 9 8 8 7 7 7 7 6 5 5 4 4 4
11 11 11 10 11 12 12 12 12 13 14 14 15 15 15 15 15 14 13 13 13 13 13 11 10 11 11 12 12 12 12 12 11 10 9 9 9 9 10 9 10 11 11 10 10 10 11 10 11 11 11 11 11 10 10 9 8 8 7 7 7 7 6 5 5 4 4 4 4
11 11 10 10 11 11 11 12 12 13 13 13 12 12 12 13 13 13 12 13 13 13 13 11 11 10 10 10 11 11 12 12 12 11 10 9 9 9 9 9 9 9 8 8 9 10 10 9 9 9 9 8 8 7 7 7 8 8 8 7 7 7 6 5 5 5 5 4 4
10 10 10 11 11 11 12 13 14 14 13 12 9 8 9 11 11 11 11 11 12 12 12 12 11 10 9 9 10 10 10 10 11 11 11 10 10 9 9 8 8 7 7 7 9 10 10 9 9 8 7 6 6 6 6 6 7 8 8 8 8 7 7 6 5 4 4 3 3
9 10 10 10 11 11 12 12 12 12 12 11 9 8 8 9 9 10 10 10 10 11 11 11 10 9 8 8 9 9 9 9 10 11 11 11 10 10 9 8 7 6 6 7 8 9 9 9 9 8 7 6 6 6 6 6 7 7 7 7 7 7 7 6 5 3 2 1 1
9 9 10 9 9 8 7 6 7 8 10 10 10 10 9 10 10 10 9 8 8 8 8 8 8 7 6 6 8 9 9 8 9 9 10 11 10 10 9 8 6 5 5 7 7 8 8 8 8 8 8 7 7 6 6 7 7 6 6 6 6 6 5 5 3 3 2 2 2
9 9 9 8 7 6 6 6 7 7 8 9 10 10 11 11 11 10 9 8 7 7 6 5 5 5 5 6 7 7 7 8 8 8 9 10 10 9 8 7 6 5 5 6 7 7 8 8 8 9 10 10 7 6 6 6 6 6 5 5 5 5 4 3 3 2 2 3 3
8 8 8 8 8 7 7 8 8 8 8 9 10 10 11 10 10 10 9 9 7 6 5 4 4 5 5 5 5 5 5 5 6 6 6 8 8 7 7 6 5 5 5 6 7 8 9 10 11 12 12 11 8 6 5 5 5 5 5 5 5 5 4 4 3 3 3 3 4
8 8 9 9 9 8 8 8 9 9 9 9 9 10 10 10 9 9 8 8 6 5 4 5 5 5 5 4 4 4 4 4 4 4 4 5 4 4 4 5 5 5 5 6 7 8 9 10 11 11 10 10 7 6 5 6 6 5 5 5 5 4 4 4 3 3 3 4 4
9 9 9 9 9 8 8 8 9 9 9 9 9 9 9 9 8 7 6 6 5 5 5 5 6 6 5 4 4 4 4 4 3 3 3 3 3 3 3 3 4 4 5 7 7 7 7 8 8 9 9 9 8 7 7 7 6 5 5 5 4 4 4 3 2 2 3 4 5
9 9 9 9 8 8 7 8 8 8 9 9 9 8 8 7 6 5 5 5 6 6 6 6 6 5 5 4 4 3 3 3 3 3 3 2 2 2 2 2 3 4 5 7 8 8 9 11 12 12 11 10 8 7 7 6 5 4 4 3 3 2 2 1 1 2 3 4 5
9 9 9 9 8 7 7 7 8 8 8 8 7 7 7 6 6 6 5 5 5 5 5 5 5 5 4 4 4 4 4 3 3 3 3 3 4 4 4 4 4 5 7 11 12 13 13 13 13 12 11 9 7 6 5 5 4 3 3 3 2 2 2 1 1 2 3 3 3
9 9 9 8 8 7 7 7 7 7 7 7 7 6 6 6 6 6 6 5 5 5 5 4 4 4 4 4 4 4 4 4 4 4 5 5 6 6 6 5 4 6 9 13 14 14 13 12 12 11 9 7 5 5 5 5 4 4 4 4 3 3 2 1 1 2 2 2 3
9 9 9 8 8 8 7 7 7 7 7 7 7 7 6 6 6 6 6 6 6 6 5 4 4 4 4 5 4 4 5 5 5 5 6 7 7 7 7 6 5 6 9 12 12 12 11 11 10 9 8 6 5 4 4 4 4 4 5 4 3 2 2 2 2 3 3 3 3
9 9 9 8 8 8 8 8 8 8 8 7 7 7 7 6 6 5 6 6 7 6 5 4 5 4 4 4 4 4 5 6 6 7 7 8 9 9 8 6 5 5 6 8 9 10 10 11 10 9 7 5 5 4 4 3 4 4 4 3 2 1 2 2 3 3 3 3 4
9 9 9 8 8 8 8 8 8 9 8 7 7 6 6 6 5 5 5 6 6 6 5 4 5 5 5 5 5 6 6 7 8 8 8 8 8 8 8 6 4 3 3 5 8 10 11 10 9 8 7 5 5 4 4 3 4 4 3 2 0 1 2 2 2 2 3 3 4
9 9 10 9 9 9 9 9 9 9 8 8 7 7 6 6 5 5 5 5 6 6 5 5 5 5 6 7 7 7 7 8 8 8 7 7 7 7 7 6 4 3 4 7 9 11 11 11 10 9 8 6 5 4 4 4 4 3 2 0 1 2 2 2 2 2 2 3 5
9 9 10 10 10 10 10 10 9 8 8 8 8 7 6 6 5 5 5 5 6 6 6 6 6 6 7 8 9 8 8 7 7 7 7 7 7 8 8 6 6 5 6 8 10 11 11 11 10 9 8 6 5 4 4 4 3 2 1 0 1 1 2 2 2 2 2 3 4
9 9 10 10 10 10 10 10 9 8 7 7 7 6 5 5 5 5 5 6 6 6 6 6 7 8 8 8 8 8 8 7 6 6 7 8 8 8 8 7 7 6 5 7 9 11 11 11 10 9 8 6 5 5 4 4 3 2 1 1 1 2 2 3 3 3 3 3 4
Wind_Direction
186 186 187 188 189 188 186 183 181 181 182 185 187 188 189 190 191 190 189 188 190 192 194 195 194 193 190 185 185 187 189 191 190 189 187 183 179 177 175 174 175 176 177 178 177 176 176 176 176 178 181 183 185 188 191 189 181 180 181 182 183 181 179 180 185 184 181 175 167
188 187 187 188 189 189 187 184 182 182 185 188 190 190 190 191 192 191 190 190 190 190 189 191 191 190 189 187 186 187 188 189 189 189 188 186 182 179 177 176 177 178 178 179 178 178 179 178 177 179 183 185 185 190 193 193 181 179 183 188 189 185 182 185 190 189 183 178 169
190 188 188 188 190 191 190 188 186 186 187 190 192 192 192 194 194 193 191 190 188 186 186 189 189 189 188 188 188 188 189 189 188 188 188 188 184 181 180 179 180 180 180 180 181 181 181 180 179 180 183 186 188 191 195 194 182 181 185 191 190 187 186 191 193 191 184 180 170
192 190 189 190 192 193 193 191 190 189 189 190 192 194 194 195 196 195 191 187 185 185 186 188 188 188 187 187 189 190 191 190 188 187 188 189 186 183 182 181 182 184 184 183 183 182 181 180 180 182 184 186 188 191 193 193 185 185 188 191 188 186 188 193 193 191 186 182 174
194 193 192 192 193 194 195 194 191 190 190 190 191 194 196 197 197 195 190 185 187 187 187 185 185 186 187 187 188 190 191 190 188 188 189 190 187 185 184 183 185 186 187 186 185 183 181 178 181 184 186 187 190 192 193 187 185 187 191 192 188 186 187 191 192 189 185 182 177
196 196 195 194 194 195 197 196 193 191 190 191 192 195 197 197 195 193 190 189 189 186 183 181 184 185 185 185 187 188 189 189 190 190 190 191 190 187 185 186 187 188 188 187 186 183 181 179 182 186 189 189 193 194 190 184 185 188 191 193 193 189 186 189 190 187 183 182 180
196 196 195 194 194 195 197 197 195 193 192 194 195 196 197 197 194 193 191 190 186 183 181 182 184 184 183 183 185 187 188 189 191 191 192 192 191 190 188 188 188 188 187 187 185 184 183 181 183 186 189 189 193 194 192 186 185 188 192 195 195 190 186 188 187 183 179 180 181
196 197 196 195 194 195 197 197 196 195 195 198 199 198 198 196 193 191 189 187 184 182 183 185 186 185 183 182 184 186 187 188 190 192 193 193 193 193 191 190 189 189 188 186 185 185 185 184 186 187 188 189 192 194 193 188 186 188 191 195 196 194 190 188 184 180 178 179 183
196 197 198 196 195 195 196 197 197 197 199 202 202 200 197 195 191 189 187 187 185 183 184 187 186 184 182 182 184 185 187 188 190 192 193 194 194 194 193 191 190 190 189 187 186 186 186 188 191 191 190 189 192 193 192 187 186 188 190 194 195 196 195 191 184 180 178 178 184
196 197 197 197 196 195 196 197 198 199 201 203 203 200 196 193 191 189 188 188 183 183 184 187 185 183 182 183 184 186 187 189 190 192 194 195 195 195 195 193 192 190 189 188 187 187 188 190 193 194 193 192 192 192 190 187 186 188 190 193 194 195 197 198 190 185 182 182 187
195 195 196 197 196 195 195 196 199 201 203 204 203 200 196 193 191 189 187 184 181 183 185 185 183 182 184 185 186 187 188 190 192 194 196 197 197 197 197 196 193 192 191 191 189 189 190 192 195 195 195 194 193 191 189 187 188 190 191 193 192 194 197 201 197 193 188 187 190
194 195 196 197 195 194 194 196 199 202 203 204 203 201 197 195 193 189 185 181 181 184 185 183 182 183 185 186 187 188 188 190 193 195 197 199 200 200 199 199 196 194 193 192 191 191 193 196 196 197 196 195 193 192 190 188 190 191 191 191 191 193 197 202 201 198 194 190 192
194 194 195 196 195 194 193 195 198 200 202 203 202 201 198 196 192 188 185 183 182 183 184 182 182 184 185 187 188 188 189 190 192 195 197 200 201 201 202 201 199 197 194 193 192 193 195 197 197 198 198 197 196 195 192 190 191 192 192 191 192 195 199 202 201 198 195 192 196
193 193 194 195 194 194 194 195 197 199 200 201 201 200 198 195 191 188 186 185 184 183 182 181 183 185 187 187 187 188 189 190 192 194 196 199 200 202 202 203 201 199 196 194 193 193 195 196 196 198 199 200 200 198 196 193 193 194 193 192 194 197 200 202 198 195 193 198 200
193 193 193 193 193 193 194 195 196 197 198 199 199 198 197 195 191 190 188 188 185 183 180 180 184 187 188 186 187 187 188 189 191 194 196 198 199 201 202 203 202 200 197 194 193 193 194 194 193 195 197 201 202 201 199 197 197 196 195 195 196 199 201 202 197 194 197 204 206
193 193 192 192 192 194 194 194 195 195 196 196 196 196 196 195 192 190 190 189 186 184 181 181 184 186 187 186 186 186 187 189 191 193 195 197 198 200 201 203 203 203 201 196 194 193 193 192 190 191 195 199 201 201 200 199 198 198 198 198 199 201 202 200 197 199 205 211 210
193 193 192 191 193 194 194 194 194 193 193 193 193 194 196 196 193 192 191 190 188 186 185 184 183 183 184 186 186 187 188 190 191 193 195 196 197 198 200 203 207 209 207 201 197 195 195 194 193 194 196 197 198 198 198 198 198 199 200 201 202 202 201 197 197 204 212 215 210
193 192 192 192 193 193 193 193 192 191 190 189 190 193 196 197 195 194 193 192 190 187 186 185 184 183 183 185 187 188 189 191 192 193 195 196 196 195 197 203 210 211 209 206 201 198 197 197 196 196 196 195 195 195 196 196 197 199 201 203 203 202 199 195 200 208 214 213 206
192 192 192 192 193 193 193 192 191 190 189 188 189 193 196 198 196 195 195 195 192 189 186 185 185 184 184 185 186 188 189 191 191 192 193 194 194 194 194 199 203 204 204 206 203 199 196 195 194 193 193 193 195 196 196 196 197 199 201 203 202 199 197 198 205 210 211 204 194
191 192 192 192 192 192 192 192 191 190 188 187 189 193 196 198 197 197 196 196 193 189 186 185 185 185 185 184 186 188 190 191 191 191 192 192 193 193 193 195 197 197 199 202 200 197 194 192 191 191 192 194 196 197 198 197 198 199 200 201 199 197 197 203 208 208 202 189 180
190 190 190 190 192 192 193 193 192 190 189 188 190 193 196 198 199 198 196 194 190 188 187 186 186 185 184 184 185 188 190 191 191 191 192 191 192 193 193 194 194 195 197 198 196 193 191 191 190 191 192 193 196 198 199 199 199 200 200 199 196 196 198 203 202 197 187 176 175
187 187 188 189 192 194 195 194 192 191 190 190 192 194 196 198 199 198 195 190 187 186 187 188 186 185 183 184 185 187 189 191 191 191 191 191 192 194 195 196 195 196 197 198 195 192 190 189 190 191 191 193 196 199 200 201 201 200 198 195 193 194 195 195 189 181 174 172 177
184 185 188 190 193 196 196 196 193 191 190 191 193 195 197 198 198 195 191 186 184 185 186 186 185 184 183 183 185 186 188 189 189 189 189 189 192 195 198 198 197 198 199 199 196 193 191 190 190 191 192 194 197 200 202 203 202 199 194 191 189 188 186 180 173 170 171 177 185
182 185 189 192 195 198 200 200 196 192 191 191 193 194 195 196 193 189 184 182 182 183 184 183 183 182 182 182 184 185 187 187 187 188 188 189 192 195 197 197 198 199 199 198 195 193 191 189 191 193 194 195 198 200 202 202 199 195 189 185 183 180 174 169 168 171 178 187 193
183 186 190 193 196 200 203 206 201 196 191 190 190 190 189 188 184 180 177 177 179 180 180 180 180 180 180 181 183 185 186 187 187 188 189 192 194 195 196 196 197 198 197 194 193 192 191 191 194 196 198 198 198 198 198 196 192 188 183 180 176 172 170 171 176 181 187 192 193
183 187 191 195 197 202 207 210 205 197 190 184 182 181 180 178 173 169 168 171 174 176 177 178 178 179 179 180 182 184 186 188 189 190 191 194 195 195 195 195 195 194 192 188 188 190 192 195 197 200 201 202 199 194 191 189 187 183 179 174 171 170 171 176 181 186 188 190 192
184 189 194 197 199 203 206 209 202 193 184 177 175 176 174 166 158 155 157 162 168 171 174 176 178 178 178 181 185 187 190 191 191 192 193 194 194 193 193 193 191 188 183 179 181 185 190 195 197 200 203 206 201 195 189 188 184 180 174 169 166 166 167 170 173 174 177 192 214
188 191 193 193 192 191 188 180 174 171 169 164 164 164 162 153 144 142 143 149 156 163 169 177 177 177 178 185 192 194 194 192 192 192 192 192 190 189 189 188 184 174 166 166 172 178 185 190 194 197 201 206 201 193 186 182 178 172 164 155 151 150 150 152 152 156 170 213 237
187 183 177 167 156 142 128 121 127 134 140 143 143 143 142 138 135 133 133 134 140 149 159 169 170 173 180 190 195 196 194 189 187 187 187 186 185 183 181 180 172 160 152 157 167 176 184 189 195 199 201 201 198 190 182 176 169 161 150 140 136 135 136 142 149 167 194 223 243
170 158 147 135 123 114 108 109 114 118 121 124 125 125 126 127 128 130 131 132 134 136 138 138 145 156 167 175 177 176 175 172 170 171 174 177 177 175 173 172 167 159 154 160 173 183 190 196 200 201 199 193 184 174 164 157 149 142 136 131 132 136 144 156 172 195 219 241 261
141 133 126 119 114 111 110 110 112 114 115 117 119 121 123 127 132 136 139 140 139 133 125 120 126 133 137 135 130 129 128 127 131 139 149 158 160 163 166 171 168 162 160 168 182 192 198 200 198 191 181 167 155 145 137 130 127 127 127 131 140 150 160 173 191 215 240 261 272
122 119 117 115 115 114 113 112 112 114 116 118 121 124 128 132 136 140 143 144 142 136 130 123 121 118 112 101 96 94 93 93 97 102 111 125 136 147 160 171 159 152 155 166 176 182 181 171 155 143 134 127 123 121 120 119 120 125 132 143 155 165 176 192 221 253 266 268 263
115 115 115 116 117 116 115 113 114 115 117 119 123 126 128 128 125 126 127 127 129 130 130 126 122 117 113 106 100 93 88 87 89 90 92 101 115 127 131 123 109 116 128 139 137 133 127 122 119 116 113 110 110 113 115 117 121 128 136 146 155 160 168 198 262 269 264 257 251
114 114 115 116 117 116 114 114 113 114 115 117 118 119 120 117 114 112 111 109 112 115 117 116 116 116 114 111 108 103 94 83 80 81 84 88 93 94 90 82 84 99 112 118 117 116 117 117 117 114 111 107 106 109 112 114 115 114 112 102 85 69 57 35 281 257 250 247 248
117 117 117 117 116 115 113 111 111 110 110 111 110 109 108 109 110 110 109 105 102 99 98 97 98 96 92 88 92 94 92 84 78 77 80 84 86 86 85 84 93 108 115 116 118 120 122 123 119 114 108 101 98 99 102 104 99 91 81 68 53 39 25 358 294 266 259 260 270
120 120 119 118 115 113 111 109 107 105 105 105 104 102 100 99 102 104 105 103 101 98 95 90 87 85 82 78 79 84 90 92 85 80 79 83 87 91 95 100 110 121 124 123 126 128 127 123 115 108 100 92 88 85 86 88 86 77 69 60 45 18 338 306 288 280 278 278 283
122 121 119 117 114 112 109 106 104 102 101 101 102 101 99 97 96 98 100 101 101 100 97 91 90 91 92 91 87 88 91 95 91 87 85 88 95 101 107 113 125 135 135 128 125 122 117 112 107 101 96 91 87 83 80 78 75 69 63 56 31 328 289 274 273 273 275 278 280
121 120 119 117 114 110 107 104 103 103 102 100 100 100 100 100 99 99 101 103 106 105 102 94 95 99 102 100 94 89 86 88 92 92 93 94 102 108 113 118 125 127 113 98 100 101 102 101 98 96 94 96 94 91 86 78 73 69 66 60 327 271 263 258 261 268 275 281 284
119 119 118 116 114 110 107 105 105 105 104 102 100 99 100 101 102 103 104 105 109 109 106 101 102 103 102 98 92 87 82 81 87 92 96 98 101 105 107 108 101 81 71 80 90 95 97 97 95 95 96 100 100 98 92 84 80 78 80 113 249 263 268 273 280 290 295 297 298
116 115 114 114 113 110 108 106 107 107 106 105 104 104 104 105 106 105 103 100 102 102 102 102 103 101 99 95 93 89 85 81 82 87 92 95 94 95 96 100 95 86 83 91 98 101 102 102 102 103 103 103 100 97 91 88 87 87 87 252 274 289 301 311 321 326 323 318 316
112 111 111 112 112 111 110 109 108 107 107 106 108 109 109 107 105 102 99 96 96 97 99 100 99 98 97 96 96 95 92 87 84 85 89 91 90 91 94 100 99 97 97 103 109 111 112 112 111 107 102 94 88 83 80 80 77 64 22 339 339 336 335 333 340 344 345 342 341